• In Hungary
  • List of Countries
  • For 7 days
  • Water Temperature
  • Satellite Maps
  • Weather Map
  • News
  • Weather Widgets
  • user-avatar
    Login

    Hourly Weather Lapa

    Today, 13 November, Tuesday

    Time Temperature Precipitation Wind Pressure Humidity
    00:00 +20°C° 0 mm 2 mps 682 mmHg 89%
    01:00 +19°C° 0 mm 2 mps 682 mmHg 89%
    02:00 +19°C° 0 mm 2 mps 682 mmHg 89%
    03:00 +19°C° 0 mm 2 mps 682 mmHg 90%
    04:00 +19°C° 0 mm 2 mps 682 mmHg 91%
    05:00 +19°C° 0 mm 1 mps 682 mmHg 91%
    06:00 +19°C° 0 mm 1 mps 682 mmHg 91%
    07:00 +21°C° 0 mm 1 mps 682 mmHg 82%
    08:00 +24°C° 0 mm 2 mps 683 mmHg 73%
    09:00 +26°C° 0 mm 2 mps 684 mmHg 66%
    10:00 +28°C° 0 mm 2 mps 683 mmHg 59%
    11:00 +30°C° 0 mm 2 mps 683 mmHg 53%
    12:00 +32°C° 0 mm 2 mps 683 mmHg 47%
    13:00 +32°C° 0 mm 2 mps 682 mmHg 46%
    14:00 +32°C° 0 mm 2 mps 682 mmHg 46%
    15:00 +34°C° 0 mm 2 mps 682 mmHg 45%
    16:00 +31°C° 0 mm 1 mps 681 mmHg 53%
    17:00 +29°C° 0 mm 1 mps 681 mmHg 61%
    18:00 +28°C° 0 mm 1 mps 681 mmHg 69%
    19:00 +26°C° 0.1 mm 1 mps 681 mmHg 76%
    20:00 +25°C° 0.1 mm 1 mps 681 mmHg 83%
    21:00 +23°C° 0.1 mm 1 mps 681 mmHg 90%
    22:00 +23°C° 0 mm 1 mps 681 mmHg 91%
    23:00 +23°C° 0 mm 1 mps 680 mmHg 91%

    Tomorrow, 14 November, Wednesday

    Time Temperature Precipitation Wind Pressure Humidity
    00:00 +22°C° 0 mm 1 mps 680 mmHg 92%
    01:00 +22°C° 0 mm 1 mps 680 mmHg 92%
    02:00 +22°C° 0 mm 1 mps 679 mmHg 92%
    03:00 +22°C° 0 mm 1 mps 679 mmHg 91%
    04:00 +22°C° 0.2 mm 1 mps 679 mmHg 92%
    05:00 +22°C° 0.2 mm 1 mps 679 mmHg 93%
    06:00 +22°C° 0.2 mm 1 mps 679 mmHg 94%
    07:00 +23°C° 0.9 mm 2 mps 680 mmHg 89%
    08:00 +25°C° 0.9 mm 2 mps 680 mmHg 84%
    09:00 +27°C° 0.9 mm 3 mps 681 mmHg 79%
    10:00 +27°C° 0.4 mm 3 mps 681 mmHg 74%
    11:00 +28°C° 0.4 mm 3 mps 681 mmHg 70%
    12:00 +29°C° 0.4 mm 3 mps 680 mmHg 66%
    13:00 +29°C° 0.3 mm 3 mps 680 mmHg 66%
    14:00 +29°C° 0.3 mm 2 mps 680 mmHg 66%
    15:00 +28°C° 0.3 mm 2 mps 680 mmHg 66%
    16:00 +27°C° 0.3 mm 2 mps 680 mmHg 73%
    17:00 +26°C° 0.3 mm 1 mps 679 mmHg 79%
    18:00 +24°C° 0.3 mm 1 mps 679 mmHg 86%
    19:00 +24°C° 0 mm 1 mps 679 mmHg 88%
    20:00 +21°C° 0 mm 0 mps 679 mmHg 90%
    21:00 +20°C° 0 mm 0 mps 680 mmHg 92%
    22:00 +20°C° 0 mm 0 mps 680 mmHg 93%
    23:00 +20°C° 0 mm 0 mps 680 mmHg 93%

    Day after tomorrow, 15 November, Thursday

    Time Temperature Precipitation Wind Pressure Humidity
    00:00 +20°C° 0 mm 0 mps 680 mmHg 93%
    01:00 +20°C° 0.2 mm 0 mps 679 mmHg 94%
    02:00 +19°C° 0.2 mm 0 mps 679 mmHg 96%
    03:00 +19°C° 0.2 mm 0 mps 679 mmHg 97%
    04:00 +21°C° 0.7 mm 1 mps 679 mmHg 97%
    05:00 +20°C° 0.7 mm 1 mps 680 mmHg 97%
    06:00 +20°C° 0.7 mm 1 mps 680 mmHg 97%
    07:00 +21°C° 0.1 mm 1 mps 680 mmHg 93%
    08:00 +20°C° 0.1 mm 2 mps 681 mmHg 90%
    09:00 +20°C° 0.1 mm 2 mps 681 mmHg 86%
    10:00 +23°C° 0 mm 2 mps 681 mmHg 79%
    11:00 +24°C° 0 mm 2 mps 682 mmHg 72%
    12:00 +26°C° 0 mm 2 mps 682 mmHg 65%
    13:00 +26°C° 0.4 mm 2 mps 681 mmHg 65%
    14:00 +26°C° 0.4 mm 2 mps 681 mmHg 66%
    15:00 +26°C° 0.4 mm 2 mps 681 mmHg 66%
    16:00 +25°C° 0.6 mm 2 mps 681 mmHg 70%
    17:00 +23°C° 0.6 mm 2 mps 681 mmHg 74%
    18:00 +21°C° 0.6 mm 2 mps 681 mmHg 77%
    19:00 +20°C° 0 mm 2 mps 681 mmHg 80%
    20:00 +19°C° 0 mm 2 mps 681 mmHg 83%
    21:00 +17°C° 0 mm 2 mps 682 mmHg 86%
    22:00 +17°C° 0 mm 2 mps 682 mmHg 88%
    23:00 +16°C° 0 mm 2 mps 682 mmHg 89%

    16 November, Friday

    Time Temperature Precipitation Wind Pressure Humidity
    00:00 +16°C° 0 mm 1 mps 682 mmHg 90%
    01:00 +15°C° 0 mm 1 mps 682 mmHg 90%
    02:00 +15°C° 0 mm 1 mps 682 mmHg 91%
    03:00 +15°C° 0 mm 1 mps 681 mmHg 91%
    04:00 +15°C° 0 mm 1 mps 682 mmHg 91%
    05:00 +15°C° 0 mm 1 mps 682 mmHg 91%
    06:00 +15°C° 0 mm 1 mps 682 mmHg 90%
    07:00 +19°C° 0 mm 1 mps 683 mmHg 82%
    08:00 +21°C° 0 mm 1 mps 684 mmHg 73%
    09:00 +23°C° 0 mm 1 mps 685 mmHg 64%
    10:00 +25°C° 0 mm 1 mps 684 mmHg 59%
    11:00 +27°C° 0 mm 1 mps 684 mmHg 55%
    12:00 +29°C° 0 mm 1 mps 684 mmHg 50%
    13:00 +29°C° 0 mm 2 mps 684 mmHg 53%
    14:00 +28°C° 0 mm 2 mps 683 mmHg 55%
    15:00 +28°C° 0 mm 2 mps 683 mmHg 57%
    16:00 +26°C° 0 mm 2 mps 683 mmHg 62%
    17:00 +25°C° 0 mm 2 mps 683 mmHg 68%
    18:00 +24°C° 0 mm 2 mps 683 mmHg 73%
    19:00 +21°C° 0 mm 2 mps 683 mmHg 77%
    20:00 +20°C° 0 mm 3 mps 684 mmHg 82%
    21:00 +18°C° 0 mm 3 mps 684 mmHg 87%
    22:00 +17°C° 0 mm 2 mps 684 mmHg 88%
    23:00 +17°C° 0 mm 2 mps 684 mmHg 89%

    17 November, Saturday

    Time Temperature Precipitation Wind Pressure Humidity
    00:00 +16°C° 0 mm 2 mps 684 mmHg 89%
    01:00 +16°C° 0 mm 2 mps 684 mmHg 91%
    02:00 +15°C° 0 mm 1 mps 683 mmHg 92%
    03:00 +15°C° 0 mm 1 mps 683 mmHg 93%
    04:00 +15°C° 0 mm 1 mps 683 mmHg 92%
    05:00 +14°C° 0 mm 1 mps 683 mmHg 91%
    06:00 +14°C° 0 mm 1 mps 683 mmHg 90%
    07:00 +17°C° 0 mm 2 mps 683 mmHg 80%
    08:00 +19°C° 0 mm 2 mps 684 mmHg 70%
    09:00 +23°C° 0 mm 2 mps 685 mmHg 59%
    10:00 +25°C° 0 mm 2 mps 685 mmHg 57%
    11:00 +26°C° 0 mm 2 mps 685 mmHg 54%
    12:00 +28°C° 0 mm 2 mps 684 mmHg 52%
    13:00 +28°C° 0 mm 2 mps 684 mmHg 53%
    14:00 +28°C° 0 mm 2 mps 683 mmHg 54%
    15:00 +28°C° 0 mm 2 mps 682 mmHg 55%
    16:00 +27°C° 0 mm 2 mps 682 mmHg 61%
    17:00 +26°C° 0 mm 2 mps 682 mmHg 66%
    18:00 +25°C° 0 mm 1 mps 682 mmHg 71%
    19:00 +24°C° 0 mm 2 mps 681 mmHg 77%
    20:00 +21°C° 0 mm 2 mps 681 mmHg 83%
    21:00 +20°C° 0 mm 2 mps 681 mmHg 88%
    22:00 +19°C° 0 mm 2 mps 681 mmHg 91%
    23:00 +20°C° 0 mm 1 mps 681 mmHg 94%

    18 November, Sunday

    Time Temperature Precipitation Wind Pressure Humidity
    00:00 +19°C° 0 mm 1 mps 680 mmHg 97%
    01:00 +19°C° 0 mm 1 mps 680 mmHg 97%
    02:00 +19°C° 0 mm 1 mps 680 mmHg 97%
    03:00 +18°C° 0 mm 2 mps 679 mmHg 97%
    04:00 +18°C° 0 mm 2 mps 679 mmHg 96%
    05:00 +20°C° 0 mm 1 mps 679 mmHg 95%
    06:00 +20°C° 0 mm 1 mps 679 mmHg 94%
    07:00 +20°C° 0 mm 2 mps 680 mmHg 89%
    08:00 +21°C° 0 mm 2 mps 680 mmHg 85%
    09:00 +22°C° 0 mm 3 mps 680 mmHg 80%
    10:00 +24°C° 0.1 mm 3 mps 680 mmHg 78%
    11:00 +25°C° 0.1 mm 3 mps 680 mmHg 76%
    12:00 +25°C° 0.1 mm 3 mps 679 mmHg 75%
    13:00 +25°C° 0.8 mm 3 mps 679 mmHg 78%
    14:00 +25°C° 0.8 mm 2 mps 678 mmHg 82%
    15:00 +25°C° 0.8 mm 2 mps 678 mmHg 86%
    16:00 +24°C° 1.7 mm 2 mps 678 mmHg 89%
    17:00 +23°C° 1.7 mm 2 mps 678 mmHg 92%
    18:00 +22°C° 1.7 mm 1 mps 678 mmHg 96%
    19:00 +22°C° 0.7 mm 1 mps 678 mmHg 96%
    20:00 +21°C° 0.7 mm 1 mps 679 mmHg 97%
    21:00 +21°C° 0.7 mm 1 mps 679 mmHg 98%
    22:00 +20°C° 0.2 mm 1 mps 679 mmHg 98%
    23:00 +20°C° 0.2 mm 1 mps 679 mmHg 98%
    Show more